When you browse on this site, cookies collect data to enhance your experience and personalize the content and advertising you see.
Visit our Privacy Policy to learn more. By continuing to use the site, you agree to this use of cookies and data.
  • En España
  • Lista de países
  • Para 7 días
  • Temperatura del agua
  • El tiempo en el mapa
  • Informadores
  • user-avatar
    Iniciar sesión

    Tiempo cada hora Ibb

    Hoy, 20 Agosto, Martes

    Tiempo Temperatura Precipitaciones Viento Presión Humedad
    00:00 +22°C° 0 mm 1 mps 595 mmHg 64%
    01:00 +22°C° 0 mm 1 mps 594 mmHg 59%
    02:00 +22°C° 0 mm 1 mps 594 mmHg 55%
    03:00 +21°C° 0 mm 1 mps 593 mmHg 51%
    04:00 +21°C° 0 mm 1 mps 594 mmHg 49%
    05:00 +21°C° 0 mm 1 mps 594 mmHg 47%
    06:00 +20°C° 0 mm 1 mps 594 mmHg 45%
    07:00 +23°C° 0 mm 2 mps 595 mmHg 37%
    08:00 +25°C° 0 mm 3 mps 596 mmHg 30%
    09:00 +27°C° 0 mm 4 mps 598 mmHg 22%
    10:00 +28°C° 0 mm 4 mps 598 mmHg 21%
    11:00 +29°C° 0 mm 4 mps 598 mmHg 20%
    12:00 +30°C° 0 mm 5 mps 598 mmHg 19%
    13:00 +30°C° 0.2 mm 5 mps 597 mmHg 24%
    14:00 +29°C° 0.2 mm 5 mps 597 mmHg 29%
    15:00 +29°C° 0.2 mm 5 mps 596 mmHg 34%
    16:00 +28°C° 0.5 mm 4 mps 596 mmHg 41%
    17:00 +26°C° 0.5 mm 3 mps 595 mmHg 48%
    18:00 +25°C° 0.5 mm 2 mps 595 mmHg 55%
    19:00 +24°C° 0.3 mm 2 mps 595 mmHg 59%
    20:00 +24°C° 0.3 mm 1 mps 595 mmHg 62%
    21:00 +23°C° 0.3 mm 1 mps 595 mmHg 65%
    22:00 +23°C° 0 mm 1 mps 595 mmHg 64%
    23:00 +23°C° 0 mm 1 mps 595 mmHg 63%

    Mañana, 21 Agosto, Miércoles

    Tiempo Temperatura Precipitaciones Viento Presión Humedad
    00:00 +23°C° 0 mm 1 mps 594 mmHg 62%
    01:00 +22°C° 0 mm 1 mps 594 mmHg 59%
    02:00 +22°C° 0 mm 1 mps 594 mmHg 56%
    03:00 +22°C° 0 mm 1 mps 593 mmHg 54%
    04:00 +22°C° 0 mm 1 mps 593 mmHg 51%
    05:00 +22°C° 0 mm 1 mps 594 mmHg 48%
    06:00 +21°C° 0 mm 1 mps 594 mmHg 45%
    07:00 +23°C° 0 mm 1 mps 595 mmHg 40%
    08:00 +25°C° 0 mm 2 mps 596 mmHg 35%
    09:00 +27°C° 0 mm 2 mps 597 mmHg 30%
    10:00 +28°C° 0 mm 2 mps 597 mmHg 30%
    11:00 +28°C° 0 mm 3 mps 597 mmHg 31%
    12:00 +29°C° 0 mm 4 mps 597 mmHg 32%
    13:00 +28°C° 0.4 mm 4 mps 596 mmHg 37%
    14:00 +28°C° 0.4 mm 4 mps 595 mmHg 42%
    15:00 +27°C° 0.4 mm 3 mps 595 mmHg 46%
    16:00 +26°C° 0.4 mm 3 mps 594 mmHg 49%
    17:00 +26°C° 0.4 mm 3 mps 594 mmHg 52%
    18:00 +25°C° 0.4 mm 2 mps 594 mmHg 54%
    19:00 +25°C° 0.4 mm 2 mps 594 mmHg 59%
    20:00 +24°C° 0.4 mm 1 mps 594 mmHg 63%
    21:00 +21°C° 0.4 mm 0 mps 595 mmHg 67%
    22:00 +21°C° 0 mm 0 mps 595 mmHg 66%
    23:00 +21°C° 0 mm 0 mps 595 mmHg 65%

    Pasado mañana, 22 Agosto, Jueves

    Tiempo Temperatura Precipitaciones Viento Presión Humedad
    00:00 +21°C° 0 mm 0 mps 595 mmHg 64%
    01:00 +21°C° 0.1 mm 0 mps 594 mmHg 64%
    02:00 +22°C° 0.1 mm 1 mps 594 mmHg 64%
    03:00 +22°C° 0.1 mm 1 mps 593 mmHg 63%
    04:00 +22°C° 0.3 mm 1 mps 593 mmHg 66%
    05:00 +21°C° 0.3 mm 1 mps 594 mmHg 68%
    06:00 +20°C° 0.3 mm 2 mps 594 mmHg 70%
    07:00 +22°C° 0 mm 1 mps 594 mmHg 62%
    08:00 +24°C° 0 mm 1 mps 595 mmHg 54%
    09:00 +25°C° 0 mm 1 mps 596 mmHg 47%
    10:00 +25°C° 0.4 mm 1 mps 596 mmHg 48%
    11:00 +26°C° 0.4 mm 2 mps 596 mmHg 49%
    12:00 +26°C° 0.4 mm 2 mps 596 mmHg 49%
    13:00 +25°C° 2.4 mm 2 mps 595 mmHg 55%
    14:00 +23°C° 2.4 mm 2 mps 594 mmHg 61%
    15:00 +21°C° 2.4 mm 2 mps 592 mmHg 67%
    16:00 +20°C° 2.7 mm 2 mps 592 mmHg 70%
    17:00 +20°C° 2.7 mm 2 mps 592 mmHg 73%
    18:00 +19°C° 2.7 mm 3 mps 592 mmHg 76%
    19:00 +20°C° 0.2 mm 2 mps 593 mmHg 73%
    20:00 +20°C° 0.2 mm 2 mps 593 mmHg 70%
    21:00 +21°C° 0.2 mm 2 mps 594 mmHg 67%
    22:00 +21°C° 0 mm 2 mps 594 mmHg 65%
    23:00 +21°C° 0 mm 2 mps 594 mmHg 63%

    23 Agosto, Viernes

    Tiempo Temperatura Precipitaciones Viento Presión Humedad
    00:00 +21°C° 0 mm 2 mps 594 mmHg 61%
    01:00 +21°C° 0 mm 2 mps 593 mmHg 60%
    02:00 +21°C° 0 mm 2 mps 593 mmHg 59%
    03:00 +21°C° 0 mm 2 mps 593 mmHg 58%
    04:00 +21°C° 0 mm 1 mps 593 mmHg 60%
    05:00 +21°C° 0 mm 1 mps 593 mmHg 62%
    06:00 +20°C° 0 mm 1 mps 593 mmHg 64%
    07:00 +22°C° 0 mm 1 mps 594 mmHg 58%
    08:00 +23°C° 0 mm 1 mps 595 mmHg 52%
    09:00 +24°C° 0 mm 1 mps 596 mmHg 46%
    10:00 +25°C° 0.1 mm 2 mps 596 mmHg 46%
    11:00 +26°C° 0.1 mm 3 mps 596 mmHg 46%
    12:00 +26°C° 0.1 mm 4 mps 596 mmHg 46%
    13:00 +25°C° 2.1 mm 4 mps 595 mmHg 51%
    14:00 +22°C° 2.1 mm 4 mps 594 mmHg 56%
    15:00 +21°C° 2.1 mm 3 mps 593 mmHg 62%
    16:00 +21°C° 0.8 mm 3 mps 593 mmHg 61%
    17:00 +21°C° 0.8 mm 3 mps 593 mmHg 61%
    18:00 +21°C° 0.8 mm 2 mps 594 mmHg 60%
    19:00 +21°C° 0 mm 2 mps 594 mmHg 60%
    20:00 +23°C° 0 mm 1 mps 594 mmHg 59%
    21:00 +23°C° 0 mm 1 mps 595 mmHg 59%
    22:00 +23°C° 0 mm 1 mps 594 mmHg 59%
    23:00 +22°C° 0 mm 1 mps 594 mmHg 60%

    24 Agosto, Sábado

    Tiempo Temperatura Precipitaciones Viento Presión Humedad
    00:00 +20°C° 0 mm 0 mps 594 mmHg 60%
    01:00 +20°C° 0 mm 0 mps 593 mmHg 59%
    02:00 +19°C° 0 mm 0 mps 593 mmHg 59%
    03:00 +19°C° 0 mm 0 mps 593 mmHg 58%
    04:00 +19°C° 0 mm 0 mps 593 mmHg 58%
    05:00 +19°C° 0 mm 0 mps 593 mmHg 59%
    06:00 +19°C° 0 mm 0 mps 594 mmHg 60%
    07:00 +22°C° 0 mm 1 mps 594 mmHg 56%
    08:00 +23°C° 0 mm 1 mps 595 mmHg 52%
    09:00 +24°C° 0 mm 1 mps 596 mmHg 48%
    10:00 +25°C° 0.1 mm 2 mps 596 mmHg 47%
    11:00 +26°C° 0.1 mm 2 mps 596 mmHg 45%
    12:00 +27°C° 0.1 mm 3 mps 596 mmHg 44%
    13:00 +26°C° 0.9 mm 3 mps 596 mmHg 47%
    14:00 +25°C° 0.9 mm 3 mps 595 mmHg 49%
    15:00 +23°C° 0.9 mm 4 mps 594 mmHg 52%
    16:00 +22°C° 1.3 mm 3 mps 594 mmHg 58%
    17:00 +21°C° 1.3 mm 3 mps 594 mmHg 63%
    18:00 +21°C° 1.3 mm 3 mps 594 mmHg 68%
    19:00 +21°C° 0 mm 2 mps 594 mmHg 67%
    20:00 +22°C° 0 mm 1 mps 594 mmHg 65%
    21:00 +22°C° 0 mm 1 mps 594 mmHg 64%
    22:00 +22°C° 0 mm 1 mps 594 mmHg 62%
    23:00 +22°C° 0 mm 1 mps 594 mmHg 60%

    25 Agosto, Domingo

    Tiempo Temperatura Precipitaciones Viento Presión Humedad
    00:00 +22°C° 0 mm 1 mps 594 mmHg 57%
    01:00 +21°C° 0 mm 1 mps 593 mmHg 57%
    02:00 +21°C° 0 mm 1 mps 593 mmHg 57%
    03:00 +21°C° 0 mm 1 mps 593 mmHg 57%
    04:00 +21°C° 0 mm 1 mps 593 mmHg 59%
    05:00 +20°C° 0 mm 1 mps 593 mmHg 60%
    06:00 +20°C° 0 mm 1 mps 593 mmHg 62%
    07:00 +20°C° 0 mm 2 mps 594 mmHg 58%
    08:00 +23°C° 0 mm 2 mps 595 mmHg 54%
    09:00 +24°C° 0 mm 2 mps 596 mmHg 51%
    10:00 +25°C° 0.1 mm 3 mps 596 mmHg 50%
    11:00 +26°C° 0.1 mm 3 mps 596 mmHg 49%
    12:00 +26°C° 0.1 mm 4 mps 596 mmHg 49%
    13:00 +26°C° 0.6 mm 4 mps 595 mmHg 50%
    14:00 +26°C° 0.6 mm 5 mps 594 mmHg 52%
    15:00 +26°C° 0.6 mm 5 mps 594 mmHg 53%
    16:00 +25°C° 0.3 mm 5 mps 594 mmHg 56%
    17:00 +23°C° 0.3 mm 4 mps 593 mmHg 59%
    18:00 +22°C° 0.3 mm 3 mps 593 mmHg 62%
    19:00 +22°C° 0.1 mm 3 mps 593 mmHg 64%
    20:00 +21°C° 0.1 mm 2 mps 594 mmHg 67%
    21:00 +22°C° 0.1 mm 1 mps 594 mmHg 69%
    22:00 +22°C° 0 mm 1 mps 594 mmHg 69%
    23:00 +22°C° 0 mm 1 mps 593 mmHg 68%
    Mostrar más